| time (UTC) | temp F | wind direction | speed MPH | gust MPH | rain 1hr in | rain 24hr in | rain mn in | humidity % | barometer mb |
| 20260505152554 | 62 | 167 | 2.0 | 2.0 | 0.00 | 0.00 | 0.00 | 80 | 1013.2 |
| 20260505151554 | 62 | 180 | 1.0 | 2.0 | 0.00 | 0.00 | 0.00 | 81 | 1013.2 |
| 20260505150553 | 61 | 123 | 1.0 | 2.0 | 0.00 | 0.00 | 0.00 | 82 | 1013.2 |
| 20260505140553 | 62 | 182 | 0.0 | 0.0 | 0.00 | 0.00 | 0.00 | 80 | 1013.5 |
| 20260505124553 | 60 | 185 | 1.0 | 1.0 | 0.00 | 0.00 | 0.55 | 89 | 1012.9 |
| 20260505122553 | 60 | 189 | 1.0 | 2.0 | 0.00 | 0.00 | 0.55 | 88 | 1012.9 |
| 20260505121553 | 60 | 203 | 0.0 | 0.0 | 0.00 | 0.00 | 0.55 | 85 | 1012.9 |
| 20260505120553 | 60 | 217 | 2.0 | 3.0 | 0.00 | 0.00 | 0.55 | 84 | 1012.9 |
| 20260505115553 | 60 | 174 | 1.0 | 1.0 | 0.00 | 0.00 | 0.55 | 81 | 1012.9 |
| 20260505113553 | 60 | 8 | 2.0 | 2.0 | 0.00 | 0.00 | 0.55 | 83 | 1012.9 |
| 20260505112553 | 61 | 201 | 0.0 | 1.0 | 0.00 | 0.00 | 0.55 | 87 | 1012.9 |
| 20260505111553 | 61 | 195 | 0.0 | 0.0 | 0.00 | 0.00 | 0.55 | 90 | 1012.9 |
| 20260505110553 | 60 | 199 | 0.0 | 0.0 | 0.00 | 0.00 | 0.55 | 93 | 1012.9 |
| 20260505101553 | 60 | 198 | 0.0 | 0.0 | 0.00 | 0.00 | 0.55 | 91 | 1012.9 |
| 20260505100553 | 59 | 26 | 2.0 | 2.0 | 0.00 | 0.00 | 0.55 | 92 | 1012.9 |
| 20260505095553 | 59 | 226 | 0.0 | 1.0 | 0.00 | 0.00 | 0.55 | 96 | 1012.9 |
| 20260505094553 | 59 | 191 | 1.0 | 2.0 | 0.00 | 0.00 | 0.55 | 96 | 1012.9 |
| 20260505092553 | 59 | 189 | 0.0 | 0.0 | 0.00 | 0.00 | 0.55 | 95 | 1012.5 |
| 20260505091553 | 59 | 197 | 0.0 | 0.0 | 0.00 | 0.00 | 0.55 | 96 | 1012.5 |
| 20260505085553 | 59 | 234 | 1.0 | 1.0 | 0.00 | 0.00 | 0.54 | 96 | 1012.9 |
| 20260505084553 | 59 | 192 | 0.0 | 0.0 | 0.00 | 0.00 | 0.54 | 95 | 1012.9 |
| 20260505083553 | 59 | 199 | 0.0 | 1.0 | 0.00 | 0.00 | 0.54 | 96 | 1012.5 |
| 20260505082553 | 59 | 193 | 1.0 | 1.0 | 0.00 | 0.00 | 0.54 | 96 | 1012.5 |
| 20260505081553 | 59 | 193 | 0.0 | 0.0 | 0.00 | 0.00 | 0.54 | 96 | 1012.5 |
| 20260505080553 | 59 | 184 | 0.0 | 0.0 | 0.00 | 0.00 | 0.54 | 95 | 1012.2 |
| 20260505075553 | 59 | 198 | 0.0 | 0.0 | 0.00 | 0.00 | 0.54 | 95 | 1012.5 |
| 20260505074553 | 59 | 181 | 0.0 | 0.0 | 0.00 | 0.00 | 0.54 | 94 | 1012.5 |
| 20260505073553 | 59 | 181 | 1.0 | 1.0 | 0.00 | 0.00 | 0.54 | 95 | 1012.2 |
| 20260505072553 | 59 | 197 | 0.0 | 0.0 | 0.00 | 0.00 | 0.54 | 96 | 1012.2 |
| 20260505071553 | 59 | 167 | 1.0 | 1.0 | 0.00 | 0.00 | 0.54 | 96 | 1012.2 |
| 20260505070553 | 58 | 187 | 0.0 | 1.0 | 0.00 | 0.00 | 0.54 | 96 | 1012.2 |
| 20260505065553 | 58 | 212 | 1.0 | 1.0 | 0.00 | 0.00 | 0.54 | 97 | 1012.2 |
| 20260505064553 | 58 | 215 | 0.0 | 0.0 | 0.00 | 0.00 | 0.54 | 95 | 1011.9 |
| 20260505063553 | 58 | 187 | 0.0 | 1.0 | 0.00 | 0.00 | 0.54 | 95 | 1011.5 |
| 20260505062553 | 58 | 201 | 0.0 | 0.0 | 0.00 | 0.00 | 0.54 | 94 | 1011.5 |
| 20260505061553 | 59 | 195 | 0.0 | 1.0 | 0.00 | 0.00 | 0.54 | 93 | 1011.5 |
| 20260505060553 | 59 | 157 | 0.0 | 1.0 | 0.00 | 0.00 | 0.54 | 97 | 1011.2 |
| 20260505055553 | 57 | 184 | 0.0 | 0.0 | 0.00 | 0.00 | 0.54 | 99 | 1011.2 |
| 20260505053553 | 57 | 195 | 0.0 | 0.0 | 0.00 | 0.00 | 0.54 | 98 | 1011.2 |
| 20260505052553 | 57 | 203 | 0.0 | 0.0 | 0.00 | 0.00 | 0.54 | 99 | 1011.2 |
| 20260505051553 | 57 | 210 | 0.0 | 0.0 | 0.00 | 0.00 | 0.54 | 99 | 1011.2 |
| 20260505050553 | 56 | 205 | 0.0 | 0.0 | 0.00 | 0.00 | 0.54 | 99 | 1010.8 |
| 20260505041553 | 56 | 220 | 1.0 | 1.0 | 0.00 | 0.00 | 0.54 | 99 | 1010.8 |
| 20260505040553 | 56 | 250 | 1.0 | 1.0 | 0.00 | 0.00 | 0.54 | 99 | 1011.2 |
| 20260505035553 | 56 | 213 | 0.0 | 0.0 | 0.00 | 0.00 | 0.54 | 99 | 1011.2 |
| 20260505033553 | 56 | 199 | 0.0 | 1.0 | 0.00 | 0.00 | 0.53 | 99 | 1011.2 |
| 20260505032553 | 56 | 195 | 0.0 | 0.0 | 0.00 | 0.00 | 0.53 | 99 | 1010.8 |
| 20260505031553 | 56 | 202 | 0.0 | 1.0 | 0.00 | 0.00 | 0.52 | 99 | 1010.8 |
| 20260505030553 | 57 | 176 | 2.0 | 2.0 | 0.00 | 0.00 | 0.51 | 98 | 1011.2 |
| 20260505025553 | 58 | 209 | 0.0 | 1.0 | 0.00 | 0.00 | 0.51 | 91 | 1011.2 |
| 20260505024553 | 56 | 93 | 2.0 | 3.0 | 0.00 | 0.00 | 0.47 | 98 | 1010.5 |
| 20260505023553 | 57 | 354 | 2.0 | 2.0 | 0.00 | 0.00 | 0.43 | 98 | 1011.9 |
| 20260505022553 | 56 | 210 | 0.0 | 1.0 | 0.00 | 0.00 | 0.38 | 98 | 1011.9 |
| 20260505021553 | 56 | 217 | 1.0 | 2.0 | 0.00 | 0.00 | 0.35 | 98 | 1012.2 |
| 20260505020553 | 57 | 207 | 1.0 | 1.0 | 0.00 | 0.00 | 0.29 | 96 | 1012.5 |
| 20260505015553 | 57 | 211 | 1.0 | 1.0 | 0.00 | 0.00 | 0.23 | 93 | 1012.5 |
| 20260505014553 | 58 | 207 | 3.0 | 3.0 | 0.00 | 0.00 | 0.20 | 90 | 1012.2 |
| 20260505013553 | 58 | 315 | 2.0 | 2.0 | 0.00 | 0.00 | 0.20 | 87 | 1011.9 |
| 20260505012553 | 59 | 347 | 9.0 | 11.0 | 0.00 | 0.00 | 0.19 | 83 | 1011.9 |
| 20260505011553 | 58 | 330 | 3.0 | 5.0 | 0.00 | 0.00 | 0.19 | 86 | 1012.2 |
| 20260505010553 | 58 | 8 | 4.0 | 7.0 | 0.00 | 0.00 | 0.17 | 85 | 1012.5 |
| 20260505005553 | 57 | 265 | 3.0 | 3.0 | 0.00 | 0.00 | 0.16 | 88 | 1012.9 |
| 20260505004553 | 57 | 308 | 3.0 | 4.0 | 0.00 | 0.00 | 0.13 | 88 | 1012.9 |
| 20260505003553 | 57 | 340 | 3.0 | 3.0 | 0.00 | 0.00 | 0.09 | 87 | 1013.5 |
| 20260505002553 | 57 | 216 | 0.0 | 1.0 | 0.00 | 0.00 | 0.05 | 90 | 1013.5 |
| 20260505001552 | 58 | 0 | 2.0 | 2.0 | 0.00 | 0.00 | 0.04 | 84 | 1013.5 |
| 20260505000553 | 58 | 290 | 3.0 | 3.0 | 0.00 | 0.00 | 0.03 | 84 | 1013.5 |
| 20260504235552 | 58 | 204 | 0.0 | 1.0 | 0.00 | 0.00 | 0.01 | 87 | 1013.9 |
| 20260504234553 | 58 | 186 | 0.0 | 1.0 | 0.00 | 0.00 | 0.00 | 83 | 1013.9 |
| 20260504233552 | 60 | 270 | 1.0 | 1.0 | 0.00 | 0.00 | 0.00 | 77 | 1013.5 |
| 20260504232552 | 60 | 48 | 2.0 | 6.0 | 0.00 | 0.00 | 0.00 | 76 | 1013.9 |
| 20260504231552 | 59 | 196 | 1.0 | 2.0 | 0.00 | 0.00 | 0.00 | 79 | 1013.9 |
| 20260504230553 | 59 | 15 | 4.0 | 9.0 | 0.00 | 0.00 | 0.00 | 77 | 1014.2 |
| 20260504225552 | 59 | 220 | 3.0 | 4.0 | 0.00 | 0.00 | 0.11 | 79 | 1014.2 |
| 20260504224552 | 59 | 294 | 3.0 | 5.0 | 0.00 | 0.00 | 0.11 | 78 | 1014.6 |
| 20260504223552 | 58 | 147 | 3.0 | 5.0 | 0.00 | 0.00 | 0.09 | 81 | 1014.2 |
| 20260504222553 | 57 | 225 | 2.0 | 3.0 | 0.00 | 0.00 | 0.09 | 87 | 1014.6 |
| 20260504221552 | 58 | 250 | 1.0 | 2.0 | 0.00 | 0.00 | 0.07 | 83 | 1014.9 |
| 20260504220552 | 59 | 234 | 2.0 | 3.0 | 0.00 | 0.00 | 0.05 | 76 | 1014.9 |
| 20260504215552 | 60 | 73 | 3.0 | 3.0 | 0.00 | 0.00 | 0.04 | 73 | 1014.9 |
| 20260504214552 | 59 | 3 | 6.0 | 10.0 | 0.00 | 0.00 | 0.04 | 76 | 1014.9 |
| 20260504213552 | 58 | 230 | 4.0 | 9.0 | 0.00 | 0.00 | 0.04 | 80 | 1015.2 |
| 20260504212552 | 59 | 27 | 6.0 | 7.0 | 0.00 | 0.00 | 0.03 | 77 | 1015.2 |
| 20260504211550 | 60 | 171 | 4.0 | 8.0 | 0.00 | 0.00 | 0.01 | 73 | 1015.9 |
| 20260504210550 | 61 | 7 | 2.0 | 3.0 | 0.00 | 0.00 | 0.00 | 66 | 1015.9 |
| 20260504205550 | 61 | 264 | 3.0 | 4.0 | 0.00 | 0.00 | 0.00 | 68 | 1015.9 |
| 20260504204550 | 61 | 226 | 1.0 | 1.0 | 0.00 | 0.00 | 0.00 | 68 | 1015.9 |
| 20260504203550 | 61 | 152 | 3.0 | 3.0 | 0.00 | 0.00 | 0.00 | 69 | 1015.9 |
| 20260504202550 | 61 | 249 | 5.0 | 5.0 | 0.00 | 0.00 | 0.00 | 68 | 1015.9 |
| 20260504201550 | 60 | 288 | 3.0 | 3.0 | 0.00 | 0.00 | 0.00 | 70 | 1015.9 |
| 20260504200550 | 61 | 243 | 3.0 | 10.0 | 0.00 | 0.00 | 0.00 | 69 | 1015.6 |
| 20260504195550 | 60 | 141 | 4.0 | 4.0 | 0.00 | 0.00 | 0.00 | 73 | 1015.6 |
| 20260504194550 | 60 | 133 | 4.0 | 4.0 | 0.00 | 0.00 | 0.00 | 71 | 1015.6 |
| 20260504193550 | 61 | 349 | 2.0 | 4.0 | 0.00 | 0.00 | 0.00 | 70 | 1015.6 |
| 20260504192550 | 61 | 47 | 7.0 | 10.0 | 0.00 | 0.00 | 0.00 | 67 | 1015.9 |
| 20260504191550 | 61 | 15 | 1.0 | 3.0 | 0.00 | 0.00 | 0.00 | 65 | 1015.9 |
| 20260504190550 | 62 | 269 | 2.0 | 3.0 | 0.00 | 0.00 | 0.00 | 62 | 1015.9 |
| 20260504185550 | 62 | 132 | 4.0 | 6.0 | 0.00 | 0.00 | 0.00 | 61 | 1015.9 |
| 20260504184550 | 63 | 4 | 2.0 | 2.0 | 0.00 | 0.00 | 0.00 | 60 | 1015.9 |
| 20260504183550 | 63 | 353 | 2.0 | 2.0 | 0.00 | 0.00 | 0.00 | 57 | 1015.9 |
| 20260504182550 | 63 | 0 | 5.0 | 9.0 | 0.00 | 0.00 | 0.00 | 56 | 1015.6 |
| 20260504181550 | 63 | 70 | 4.0 | 4.0 | 0.00 | 0.00 | 0.00 | 54 | 1015.6 |
| 20260504175550 | 63 | 331 | 8.0 | 11.0 | 0.00 | 0.00 | 0.00 | 51 | 1015.6 |
| 20260504174550 | 63 | 51 | 3.0 | 4.0 | 0.00 | 0.00 | 0.00 | 51 | 1015.9 |
| 20260504173550 | 63 | 185 | 3.0 | 3.0 | 0.00 | 0.00 | 0.00 | 52 | 1015.6 |
| 20260504172550 | 63 | 268 | 6.0 | 8.0 | 0.00 | 0.00 | 0.00 | 51 | 1015.6 |
| 20260504171550 | 63 | 206 | 3.0 | 3.0 | 0.00 | 0.00 | 0.00 | 54 | 1015.6 |
| 20260504170550 | 63 | 16 | 4.0 | 6.0 | 0.00 | 0.00 | 0.00 | 53 | 1015.6 |